CFG2321 VRMM-EDDF

Flight info

Callsign CFG2321
Flight time N/A
Altitude 34000
Route MUNUT1A MUNUT R329 POMAN P570 OTABI/N0496F330 A474 BBB/N0492F350 G208 APANO/N0496F340 G208 KE B210 NH/N0492F350 G326 ZB/N0503F340 L750 ENRON/N0492F360 L750 RANAH A846 ABDAN A909 RODAR N644 NIJAT/N0472F380 N644 ADEKI DCT BADIR DCT LAGAS DCT NOLGA UG261 TBN UM11 CRM UL746 ODERO DCT OPT DCT ULMIN/N0475F400 DCT DEGET DCT ABETI DCT PEROL DCT SUBEN DCT AKINI T161 DEBHI DEBHI1C
Aircraft A339/H-SADE1E2E3GHIJ3J5M1P2RWXY/LB2D1

Departure

Time 2026-05-01 09:35
Airport Velana International Airport (VRMM)

Arrival

Time N/A
Airport Frankfurt Main Airport (EDDF)
Time Latitude Longitude Altitude Speed Heading
2026-05-01 08:50 4.18507 73.52751 21 ft 0 kts 270°
2026-05-01 09:28 4.18507 73.52752 21 ft 2 kts 270°
2026-05-01 09:29 4.18511 73.52804 26 ft 4 kts 252°
2026-05-01 09:29 4.18520 73.52829 26 ft 4 kts 234°
2026-05-01 09:30 4.18549 73.52855 26 ft 0 kts 180°
2026-05-01 09:32 4.18511 73.52860 25 ft 8 kts 159°
2026-05-01 09:32 4.18491 73.52909 22 ft 8 kts 121°
2026-05-01 09:33 4.18431 73.52928 23 ft 11 kts 173°
2026-05-01 09:33 4.18353 73.52929 20 ft 12 kts 179°
2026-05-01 09:33 4.18210 73.52949 20 ft 8 kts 137°
2026-05-01 09:34 4.18200 73.53012 19 ft 11 kts 89°
2026-05-01 09:34 4.18222 73.53088 18 ft 11 kts 46°
2026-05-01 09:34 4.18541 73.53102 21 ft 69 kts 360°
2026-05-01 09:35 4.19254 73.53102 22 ft 134 kts
2026-05-01 09:35 4.21663 73.53116 514 ft 193 kts 358°
2026-05-01 09:35 4.23054 73.53107 1059 ft 209 kts 357°
2026-05-01 09:36 4.24568 73.53080 1577 ft 225 kts 356°
2026-05-01 09:36 4.26168 73.53037 1966 ft 237 kts 357°
2026-05-01 09:36 4.27867 73.53007 2184 ft 252 kts 358°
2026-05-01 09:36 4.29681 73.53001 2390 ft 266 kts 359°
2026-05-01 09:37 4.31539 73.53010 2901 ft 267 kts 359°
2026-05-01 09:37 4.35238 73.53038 3901 ft 270 kts 359°
2026-05-01 09:37 4.37122 73.53051 4390 ft 271 kts 359°
2026-05-01 09:38 4.40929 73.53074 5338 ft 276 kts 360°
2026-05-01 09:38 4.42849 73.52982 5804 ft 277 kts 351°
2026-05-01 09:38 4.44747 73.52607 6271 ft 279 kts 348°
2026-05-01 09:39 4.48586 73.51816 7147 ft 284 kts 349°
2026-05-01 09:39 4.50535 73.51428 7592 ft 286 kts 349°
2026-05-01 09:39 4.52472 73.51046 8024 ft 288 kts 349°
2026-05-01 09:40 4.54449 73.50658 8452 ft 291 kts 349°
2026-05-01 09:40 4.58458 73.49871 9334 ft 296 kts 350°
2026-05-01 09:40 4.60482 73.49474 9770 ft 298 kts 350°
2026-05-01 09:41 4.62524 73.49073 10160 ft 302 kts 350°
2026-05-01 09:41 4.66838 73.48225 10395 ft 329 kts 350°
2026-05-01 09:41 4.69128 73.47776 10515 ft 342 kts 350°
2026-05-01 09:42 4.71461 73.47319 10716 ft 350 kts 350°
2026-05-01 09:42 4.73860 73.46848 11102 ft 352 kts 350°
2026-05-01 09:42 4.78692 73.45898 11875 ft 357 kts 350°
2026-05-01 09:43 4.83593 73.44938 12664 ft 361 kts 350°
2026-05-01 09:43 4.86076 73.44451 13038 ft 364 kts 350°
2026-05-01 09:43 4.88567 73.43962 13422 ft 366 kts 350°
2026-05-01 09:44 4.93552 73.42985 14154 ft 369 kts 350°
2026-05-01 09:44 4.96087 73.42487 14509 ft 371 kts 350°
2026-05-01 09:44 4.98628 73.41988 14851 ft 373 kts 350°
2026-05-01 09:45 5.01185 73.41486 15193 ft 375 kts 350°
2026-05-01 09:45 5.06359 73.40691 15867 ft 378 kts 353°
2026-05-01 09:45 5.08972 73.40328 16192 ft 380 kts 353°
2026-05-01 09:46 5.11592 73.39961 16529 ft 382 kts 353°
2026-05-01 09:46 5.14200 73.39594 16856 ft 384 kts 353°
2026-05-01 09:46 5.16847 73.39220 17180 ft 386 kts 353°
2026-05-01 09:46 5.19509 73.38844 17491 ft 388 kts 353°
2026-05-01 09:47 5.22187 73.38465 17818 ft 389 kts 353°
2026-05-01 09:47 5.24870 73.38086 18147 ft 391 kts 353°
2026-05-01 09:47 5.27578 73.37703 18421 ft 393 kts 353°
2026-05-01 09:47 5.30299 73.37319 18726 ft 396 kts 353°
2026-05-01 09:48 5.33022 73.36935 19034 ft 397 kts 353°
2026-05-01 09:48 5.35768 73.36547 19307 ft 399 kts 353°
2026-05-01 09:48 5.38486 73.36163 19587 ft 401 kts 353°
2026-05-01 09:48 5.41250 73.35772 19873 ft 403 kts 353°
2026-05-01 09:49 5.44032 73.35379 20157 ft 405 kts 353°
2026-05-01 09:49 5.46824 73.34984 20440 ft 407 kts 353°
2026-05-01 09:49 5.49636 73.34587 20728 ft 409 kts 353°
2026-05-01 09:49 5.52459 73.34188 21010 ft 410 kts 353°
2026-05-01 09:50 5.55293 73.33786 21296 ft 413 kts 353°
2026-05-01 09:50 5.58144 73.33380 21583 ft 414 kts 353°
2026-05-01 09:50 5.60968 73.32978 21861 ft 416 kts 353°
2026-05-01 09:50 5.63846 73.32569 22158 ft 418 kts 353°
2026-05-01 09:51 5.66737 73.32158 22437 ft 421 kts 353°
2026-05-01 09:51 5.69643 73.31745 22711 ft 423 kts 353°
2026-05-01 09:51 5.72559 73.31330 23017 ft 424 kts 353°
2026-05-01 09:51 5.75494 73.30912 23304 ft 427 kts 353°
2026-05-01 09:52 5.78439 73.30493 23558 ft 429 kts 353°
2026-05-01 09:52 5.81397 73.30073 23817 ft 430 kts 353°
2026-05-01 09:52 5.84322 73.29656 24073 ft 431 kts 353°
2026-05-01 09:52 5.87300 73.29233 24310 ft 433 kts 353°
2026-05-01 09:53 5.90289 73.28807 24580 ft 434 kts 353°
2026-05-01 09:53 5.93284 73.28381 24817 ft 436 kts 353°
2026-05-01 09:53 5.96292 73.27953 25071 ft 437 kts 353°
2026-05-01 09:53 5.99310 73.27523 25332 ft 439 kts 353°
2026-05-01 09:54 6.02338 73.27092 25578 ft 440 kts 353°
2026-05-01 09:54 6.05378 73.26659 25803 ft 442 kts 353°
2026-05-01 09:54 6.08387 73.26231 26032 ft 444 kts 353°
2026-05-01 09:54 6.11448 73.25795 26283 ft 445 kts 353°
2026-05-01 09:55 6.14518 73.25358 26526 ft 446 kts 353°
2026-05-01 09:55 6.17599 73.24919 26758 ft 448 kts 353°
2026-05-01 09:55 6.20685 73.24479 27000 ft 449 kts 353°
2026-05-01 09:55 6.23785 73.24037 27227 ft 451 kts 353°
2026-05-01 09:56 6.26895 73.23594 27441 ft 453 kts 353°
2026-05-01 09:56 6.30022 73.23149 27666 ft 454 kts 353°
2026-05-01 09:56 6.33105 73.22709 27889 ft 456 kts 353°
2026-05-01 09:56 6.36253 73.22260 28107 ft 457 kts 353°
2026-05-01 09:57 6.39405 73.21811 28324 ft 459 kts 353°
2026-05-01 09:57 6.42574 73.21359 28539 ft 460 kts 353°
2026-05-01 09:57 6.45748 73.20907 28753 ft 462 kts 353°
2026-05-01 09:57 6.48938 73.20452 28968 ft 463 kts 353°
2026-05-01 09:58 6.52133 73.19996 29187 ft 465 kts 353°
2026-05-01 09:58 6.55342 73.19538 29407 ft 466 kts 353°
2026-05-01 09:58 6.58561 73.19079 29605 ft 468 kts 353°
2026-05-01 09:58 6.61788 73.18619 29837 ft 469 kts 353°
2026-05-01 09:59 6.65027 73.18156 30029 ft 471 kts 353°
2026-05-01 09:59 6.68228 73.17700 30231 ft 472 kts 352°
2026-05-01 09:59 6.71483 73.17235 30422 ft 473 kts 352°
2026-05-01 09:59 6.74734 73.16684 30600 ft 475 kts 348°
2026-05-01 10:00 6.77921 73.15784 30788 ft 477 kts 342°
2026-05-01 10:00 6.81085 73.14762 30991 ft 478 kts 343°
2026-05-01 10:00 6.84261 73.13753 31181 ft 480 kts 343°
2026-05-01 10:00 6.87452 73.12747 31390 ft 481 kts 343°
2026-05-01 10:01 6.90647 73.11742 31572 ft 482 kts 343°
2026-05-01 10:01 6.93857 73.10731 31748 ft 484 kts 343°
2026-05-01 10:01 6.97076 73.09717 31936 ft 485 kts 343°
2026-05-01 10:01 7.00301 73.08700 32120 ft 487 kts 343°
2026-05-01 10:02 7.03490 73.07694 32282 ft 488 kts 343°
2026-05-01 10:02 7.06735 73.06670 32441 ft 489 kts 343°
2026-05-01 10:02 7.09987 73.05644 32563 ft 490 kts 343°
2026-05-01 10:02 7.13243 73.04616 32707 ft 491 kts 343°
2026-05-01 10:03 7.16509 73.03586 32815 ft 492 kts 343°
2026-05-01 10:03 7.19778 73.02554 32919 ft 493 kts 343°
2026-05-01 10:03 7.26335 73.00483 33113 ft 495 kts 343°
2026-05-01 10:04 7.32915 72.98404 33270 ft 496 kts 343°
2026-05-01 10:04 7.39455 72.96338 33462 ft 496 kts 343°
2026-05-01 10:05 7.46033 72.94258 33675 ft 495 kts 342°
2026-05-01 10:05 7.52663 72.92413 33846 ft 494 kts 349°
2026-05-01 10:06 7.59397 72.90999 33866 ft 494 kts 348°
2026-05-01 10:06 7.66116 72.89563 33859 ft 493 kts 348°
2026-05-01 10:07 7.72828 72.88126 33865 ft 493 kts 348°
2026-05-01 10:07 7.79490 72.86700 33865 ft 492 kts 348°
2026-05-01 10:08 7.89535 72.84551 33868 ft 491 kts 348°
2026-05-01 10:09 7.96216 72.83122 33868 ft 491 kts 348°
2026-05-01 10:09 8.02891 72.81693 33863 ft 490 kts 348°
2026-05-01 10:10 8.09512 72.80275 33865 ft 490 kts 348°
2026-05-01 10:10 8.19517 72.78132 33862 ft 490 kts 348°
2026-05-01 10:11 8.26180 72.76703 33862 ft 490 kts 348°
2026-05-01 10:11 8.32849 72.75274 33863 ft 490 kts 349°
2026-05-01 10:12 8.39514 72.73844 33858 ft 490 kts 349°
2026-05-01 10:13 8.49479 72.71706 33860 ft 490 kts 349°
2026-05-01 10:13 8.56155 72.70273 33861 ft 491 kts 348°
2026-05-01 10:14 8.66175 72.68121 33862 ft 491 kts 348°
2026-05-01 10:14 8.72859 72.66685 33865 ft 491 kts 348°
2026-05-01 10:15 8.79500 72.65258 33865 ft 491 kts 348°
2026-05-01 10:15 8.86196 72.63887 33858 ft 491 kts 354°
2026-05-01 10:16 8.93008 72.63410 33859 ft 490 kts 358°
2026-05-01 10:17 9.03225 72.62800 33860 ft 491 kts 357°
2026-05-01 10:17 9.13461 72.62097 33862 ft 492 kts 356°
2026-05-01 10:18 9.23659 72.61389 33861 ft 492 kts 356°
2026-05-01 10:19 9.30494 72.60916 33866 ft 492 kts 356°
2026-05-01 10:19 9.37331 72.60442 33868 ft 492 kts 356°
2026-05-01 10:20 9.47589 72.59731 33866 ft 493 kts 356°
2026-05-01 10:20 9.54431 72.59257 33865 ft 493 kts 356°
2026-05-01 10:21 9.64652 72.58547 33866 ft 493 kts 356°
2026-05-01 10:22 9.74926 72.57834 33863 ft 493 kts 356°
2026-05-01 10:23 9.85197 72.57120 33870 ft 493 kts 356°
2026-05-01 10:23 9.95420 72.56409 33865 ft 493 kts 356°
2026-05-01 10:24 10.09106 72.55457 33866 ft 493 kts 356°
2026-05-01 10:25 10.22789 72.54504 33868 ft 492 kts 356°
2026-05-01 10:26 10.29574 72.54031 33866 ft 492 kts 356°
2026-05-01 10:27 10.43227 72.53079 33859 ft 491 kts 356°
2026-05-01 10:28 10.53459 72.52365 33853 ft 491 kts 356°
2026-05-01 10:28 10.63656 72.51653 33853 ft 492 kts 356°
2026-05-01 10:29 10.73905 72.50937 33851 ft 492 kts 356°
2026-05-01 10:30 10.87589 72.49981 33851 ft 493 kts 356°
2026-05-01 10:31 11.01236 72.49025 33854 ft 493 kts 356°
2026-05-01 10:32 11.11506 72.48305 33854 ft 493 kts 356°
2026-05-01 10:33 11.25204 72.47345 33849 ft 493 kts 355°
2026-05-01 10:34 11.35424 72.46629 33852 ft 493 kts 355°
2026-05-01 10:34 11.42257 72.46149 33854 ft 492 kts 355°
2026-05-01 10:35 11.52481 72.45431 33856 ft 490 kts 355°
2026-05-01 10:35 11.59277 72.44953 33845 ft 488 kts 355°
2026-05-01 10:36 11.69407 72.44240 33846 ft 489 kts 355°
2026-05-01 10:37 11.76194 72.43763 33846 ft 489 kts 355°
2026-05-01 10:37 11.86388 72.43044 33839 ft 489 kts 355°
2026-05-01 10:38 11.93178 72.42566 33846 ft 489 kts 355°
2026-05-01 10:38 11.99918 72.42090 33842 ft 489 kts 355°
2026-05-01 10:39 12.06702 72.41612 33839 ft 489 kts 355°
2026-05-01 10:39 12.13492 72.41132 33839 ft 489 kts 356°
2026-05-01 10:40 12.20280 72.40653 33836 ft 489 kts 356°
2026-05-01 10:40 12.27074 72.40173 33843 ft 489 kts 356°
2026-05-01 10:41 12.33825 72.39696 33844 ft 490 kts 356°
2026-05-01 10:42 12.44025 72.38974 33846 ft 490 kts 356°
2026-05-01 10:42 12.50830 72.38492 33842 ft 490 kts 356°
2026-05-01 10:43 12.57632 72.38011 33846 ft 490 kts 356°
2026-05-01 10:43 12.64395 72.37532 33845 ft 491 kts 356°
2026-05-01 10:44 12.71206 72.37048 33847 ft 491 kts 357°
2026-05-01 10:44 12.78021 72.36564 33846 ft 491 kts 357°
2026-05-01 10:45 12.84831 72.36082 33851 ft 491 kts 357°
2026-05-01 10:45 12.91644 72.35598 33847 ft 491 kts 357°
2026-05-01 10:46 12.98451 72.35114 33847 ft 490 kts 357°
2026-05-01 10:46 13.05213 72.34633 33848 ft 490 kts 357°
2026-05-01 10:47 13.12010 72.34150 33848 ft 490 kts 357°
2026-05-01 10:47 13.18816 72.33666 33846 ft 490 kts 357°
2026-05-01 10:48 13.25613 72.33182 33849 ft 490 kts 357°
2026-05-01 10:48 13.32406 72.32698 33849 ft 489 kts 357°
2026-05-01 10:49 13.39195 72.32214 33849 ft 489 kts 357°
2026-05-01 10:49 13.45940 72.31733 33848 ft 489 kts 357°
2026-05-01 10:50 13.52718 72.31249 33846 ft 488 kts 357°
2026-05-01 10:50 13.59501 72.30765 33844 ft 488 kts 357°
2026-05-01 10:51 13.66280 72.30281 33841 ft 488 kts 357°
2026-05-01 10:51 13.73050 72.29797 33844 ft 488 kts 357°
2026-05-01 10:52 13.79780 72.29316 33843 ft 488 kts 357°
2026-05-01 10:52 13.86555 72.28831 33844 ft 488 kts 357°
2026-05-01 10:53 13.93323 72.28347 33842 ft 488 kts 357°
2026-05-01 10:53 14.00091 72.27861 33845 ft 488 kts 357°
2026-05-01 10:54 14.06819 72.27378 33844 ft 488 kts 357°
2026-05-01 10:54 14.13590 72.26892 33843 ft 488 kts 357°
2026-05-01 10:55 14.20359 72.26407 33841 ft 488 kts 357°
2026-05-01 10:55 14.27135 72.25920 33845 ft 488 kts 357°
2026-05-01 10:56 14.33915 72.25433 33842 ft 488 kts 357°
2026-05-01 10:56 14.40646 72.24949 33841 ft 488 kts 357°
2026-05-01 10:57 14.47427 72.24462 33843 ft 489 kts 357°
2026-05-01 10:57 14.54206 72.23974 33841 ft 489 kts 357°
2026-05-01 10:58 14.61003 72.23483 33841 ft 489 kts 357°
2026-05-01 10:58 14.67724 72.22999 33846 ft 489 kts 357°
2026-05-01 10:59 14.74536 72.22507 33848 ft 489 kts 357°
2026-05-01 10:59 14.81330 72.22017 33849 ft 489 kts 357°
2026-05-01 11:00 14.88113 72.21527 33845 ft 489 kts 357°
2026-05-01 11:00 14.94901 72.21037 33844 ft 489 kts 357°
2026-05-01 11:01 15.00553 72.20629 33848 ft 491 kts 357°
2026-05-01 11:01 15.08489 72.20055 33847 ft 493 kts 357°
2026-05-01 11:02 15.15338 72.19559 33847 ft 494 kts 356°
2026-05-01 11:02 15.21042 72.19146 33849 ft 494 kts 356°
2026-05-01 11:03 15.27899 72.18649 33841 ft 494 kts 356°
2026-05-01 11:03 15.34758 72.18153 33845 ft 494 kts 356°
2026-05-01 11:04 15.42714 72.17573 33841 ft 493 kts 356°
2026-05-01 11:04 15.48452 72.17156 33840 ft 493 kts 356°
2026-05-01 11:05 15.55246 72.16662 33840 ft 493 kts 356°
2026-05-01 11:05 15.62083 72.16166 33843 ft 492 kts 356°
2026-05-01 11:06 15.68922 72.15667 33839 ft 492 kts 356°
2026-05-01 11:06 15.75750 72.15171 33840 ft 492 kts 356°
2026-05-01 11:07 15.85990 72.14424 33838 ft 492 kts 356°
2026-05-01 11:07 15.92770 72.13930 33841 ft 491 kts 356°
2026-05-01 11:08 15.99582 72.13432 33844 ft 491 kts 356°
2026-05-01 11:09 16.09819 72.12684 33844 ft 491 kts 356°
2026-05-01 11:09 16.16633 72.12186 33846 ft 491 kts 356°
2026-05-01 11:10 16.26849 72.11438 33842 ft 491 kts 356°
2026-05-01 11:10 16.33614 72.10942 33850 ft 490 kts 356°
2026-05-01 11:11 16.40424 72.10444 33844 ft 490 kts 356°
2026-05-01 11:11 16.47231 72.09944 33845 ft 490 kts 356°
2026-05-01 11:12 16.54032 72.09445 33845 ft 490 kts 356°
2026-05-01 11:12 16.60836 72.08945 33851 ft 490 kts 356°
2026-05-01 11:13 16.67641 72.08446 33850 ft 490 kts 356°
2026-05-01 11:13 16.74391 72.07950 33848 ft 490 kts 355°
2026-05-01 11:14 16.81189 72.07449 33851 ft 490 kts 355°
2026-05-01 11:14 16.87987 72.06949 33847 ft 489 kts 355°
2026-05-01 11:15 16.94778 72.06449 33847 ft 489 kts 355°
2026-05-01 11:15 17.01526 72.05952 33847 ft 489 kts 355°
2026-05-01 11:16 17.08324 72.05987 33851 ft 490 kts
2026-05-01 11:16 17.14919 72.07723 33850 ft 491 kts 20°
2026-05-01 11:17 17.21280 72.10351 33838 ft 491 kts 20°
2026-05-01 11:17 17.27611 72.12922 33845 ft 492 kts 20°
2026-05-01 11:18 17.33988 72.15514 33844 ft 492 kts 20°
2026-05-01 11:18 17.40365 72.18112 33839 ft 492 kts 20°
2026-05-01 11:19 17.46742 72.20713 33845 ft 492 kts 20°
2026-05-01 11:19 17.53116 72.23315 33844 ft 492 kts 20°
2026-05-01 11:20 17.59453 72.25903 33846 ft 492 kts 20°
2026-05-01 11:20 17.65845 72.28513 33841 ft 495 kts 20°
2026-05-01 11:21 17.72284 72.31148 33844 ft 498 kts 20°
2026-05-01 11:21 17.78756 72.33797 33838 ft 500 kts 20°
2026-05-01 11:22 17.85244 72.36458 33842 ft 501 kts 20°
2026-05-01 11:22 17.91700 72.39104 33840 ft 502 kts 20°
2026-05-01 11:23 17.98212 72.41776 33838 ft 502 kts 20°
2026-05-01 11:23 18.04722 72.44448 33840 ft 503 kts 20°
2026-05-01 11:24 18.11238 72.47126 33839 ft 503 kts 20°
2026-05-01 11:25 18.20971 72.51130 33838 ft 503 kts 20°
2026-05-01 11:25 18.30754 72.55159 33828 ft 503 kts 20°
2026-05-01 11:26 18.40540 72.59195 33834 ft 504 kts 19°
2026-05-01 11:27 18.47023 72.61871 33834 ft 504 kts 19°
2026-05-01 11:27 18.53545 72.64565 33828 ft 504 kts 19°
2026-05-01 11:28 18.60077 72.67266 33830 ft 504 kts 19°
2026-05-01 11:28 18.66601 72.69966 33829 ft 504 kts 19°
2026-05-01 11:29 18.76342 72.74002 33822 ft 504 kts 19°
2026-05-01 11:30 18.86126 72.78060 33809 ft 504 kts 19°
2026-05-01 11:30 18.92651 72.80768 33806 ft 504 kts 19°
2026-05-01 11:31 18.99177 72.83481 33829 ft 504 kts 19°
2026-05-01 11:31 19.05732 72.86103 33826 ft 502 kts 14°
2026-05-01 11:32 19.12542 72.87543 33836 ft 498 kts
2026-05-01 11:32 19.19394 72.87866 33839 ft 496 kts 360°
2026-05-01 11:33 19.26299 72.88165 33816 ft 497 kts 360°
2026-05-01 11:33 19.33211 72.88467 33812 ft 497 kts 359°
2026-05-01 11:34 19.40116 72.88765 33819 ft 497 kts 359°
2026-05-01 11:34 19.46976 72.89059 33828 ft 497 kts 359°
2026-05-01 11:35 19.53892 72.89356 33829 ft 497 kts 359°
2026-05-01 11:35 19.60806 72.89654 33830 ft 497 kts 359°
2026-05-01 11:36 19.67717 72.89951 33833 ft 497 kts 359°
2026-05-01 11:36 19.74581 72.90247 33836 ft 497 kts 359°
2026-05-01 11:37 19.81491 72.90544 33838 ft 497 kts 359°
2026-05-01 11:37 19.88396 72.90843 33839 ft 497 kts 359°
2026-05-01 11:38 19.95302 72.91140 33836 ft 497 kts 359°
2026-05-01 11:38 20.02166 72.91437 33839 ft 497 kts 359°
2026-05-01 11:39 20.09068 72.91736 33837 ft 497 kts 359°
2026-05-01 11:39 20.15970 72.92035 33833 ft 496 kts 359°
2026-05-01 11:40 20.22872 72.92334 33829 ft 496 kts 359°
2026-05-01 11:40 20.29768 72.92633 33824 ft 496 kts 359°
2026-05-01 11:41 20.36615 72.92930 33819 ft 496 kts 359°
2026-05-01 11:41 20.43509 72.93230 33818 ft 496 kts 359°
2026-05-01 11:42 20.50406 72.93530 33809 ft 496 kts 359°
2026-05-01 11:42 20.57295 72.93830 33807 ft 496 kts 359°
2026-05-01 11:43 20.64144 72.94129 33804 ft 496 kts 359°
2026-05-01 11:43 20.71034 72.94430 33799 ft 495 kts 359°
2026-05-01 11:44 20.81365 72.94855 33796 ft 495 kts 358°
2026-05-01 11:44 20.88254 72.95097 33787 ft 495 kts 358°
2026-05-01 11:45 20.95141 72.95344 33779 ft 495 kts 358°
2026-05-01 11:45 21.01977 72.95593 33776 ft 495 kts 358°
2026-05-01 11:46 21.08856 72.95845 33775 ft 495 kts 358°
2026-05-01 11:46 21.15737 72.96097 33772 ft 494 kts 358°
2026-05-01 11:47 21.22613 72.96380 33771 ft 495 kts 359°
2026-05-01 11:47 21.29442 72.96755 33765 ft 494 kts 359°
2026-05-01 11:48 21.36311 72.97126 33760 ft 494 kts 359°
2026-05-01 11:48 21.43180 72.97485 33752 ft 494 kts 359°
2026-05-01 11:49 21.50059 72.97844 33746 ft 495 kts 359°
2026-05-01 11:49 21.56860 72.97535 33743 ft 485 kts 343°
2026-05-01 11:50 21.62962 72.94753 33731 ft 474 kts 323°
2026-05-01 11:50 21.68267 72.90577 33735 ft 473 kts 321°
2026-05-01 11:51 21.73560 72.86439 33728 ft 474 kts 321°
2026-05-01 11:51 21.78894 72.82275 33724 ft 474 kts 321°
2026-05-01 11:52 21.84230 72.78102 33718 ft 474 kts 321°
2026-05-01 11:52 21.89560 72.73927 33716 ft 474 kts 321°
2026-05-01 11:53 21.94895 72.69746 33716 ft 474 kts 321°
2026-05-01 11:53 22.00184 72.65596 33717 ft 474 kts 321°
2026-05-01 11:54 22.05513 72.61410 33708 ft 474 kts 321°
2026-05-01 11:54 22.10840 72.57223 33704 ft 474 kts 321°
2026-05-01 11:55 22.16175 72.53025 33703 ft 474 kts 321°
2026-05-01 11:55 22.21503 72.48828 33694 ft 474 kts 321°
2026-05-01 11:56 22.26831 72.44627 33694 ft 474 kts 321°
2026-05-01 11:56 22.32127 72.40448 33690 ft 475 kts 321°
2026-05-01 11:57 22.37458 72.36237 33690 ft 475 kts 321°
2026-05-01 11:57 22.42791 72.32019 33687 ft 475 kts 321°
2026-05-01 11:58 22.48129 72.27794 33690 ft 476 kts 321°
2026-05-01 11:59 22.56151 72.21446 33682 ft 477 kts 322°
2026-05-01 11:59 22.61925 72.17844 33676 ft 480 kts 328°
2026-05-01 12:00 22.70644 72.12577 33681 ft 481 kts 328°
2026-05-01 12:01 22.79419 72.07280 33673 ft 481 kts 328°
2026-05-01 12:01 22.85268 72.03745 33677 ft 481 kts 328°
2026-05-01 12:02 22.91115 72.00208 33676 ft 481 kts 328°
2026-05-01 12:02 22.96924 71.96690 33669 ft 481 kts 328°
2026-05-01 12:03 23.02766 71.93148 33675 ft 481 kts 328°
2026-05-01 12:03 23.08604 71.89606 33668 ft 481 kts 328°
2026-05-01 12:04 23.14440 71.86061 33660 ft 480 kts 328°
2026-05-01 12:04 23.20271 71.82515 33667 ft 480 kts 328°
2026-05-01 12:05 23.26058 71.78993 33669 ft 480 kts 328°
2026-05-01 12:05 23.34805 71.73661 33651 ft 480 kts 328°
2026-05-01 12:06 23.40639 71.70099 33656 ft 481 kts 328°
2026-05-01 12:06 23.46432 71.66559 33653 ft 481 kts 327°
2026-05-01 12:07 23.52271 71.62987 33655 ft 481 kts 327°
2026-05-01 12:07 23.58114 71.59408 33656 ft 482 kts 327°
2026-05-01 12:08 23.63956 71.55826 33664 ft 482 kts 327°
2026-05-01 12:08 23.69801 71.52240 33656 ft 482 kts 327°
2026-05-01 12:09 23.75596 71.48680 33651 ft 481 kts 327°
2026-05-01 12:09 23.81428 71.45094 33643 ft 481 kts 327°
2026-05-01 12:10 23.90159 71.39718 33633 ft 480 kts 327°
2026-05-01 12:11 23.98879 71.34340 33624 ft 479 kts 327°
2026-05-01 12:11 24.04690 71.30752 33615 ft 479 kts 327°
2026-05-01 12:12 24.10456 71.27188 33630 ft 479 kts 327°
2026-05-01 12:12 24.16262 71.23596 33631 ft 479 kts 327°
2026-05-01 12:13 24.22062 71.20003 33632 ft 479 kts 327°
2026-05-01 12:13 24.27861 71.16407 33642 ft 479 kts 327°
2026-05-01 12:14 24.33662 71.12806 33612 ft 479 kts 327°
2026-05-01 12:14 24.39424 71.09226 33616 ft 479 kts 327°
2026-05-01 12:15 24.45219 71.05621 33620 ft 479 kts 327°
2026-05-01 12:15 24.51015 71.02011 33618 ft 479 kts 327°
2026-05-01 12:16 24.56814 70.98397 33617 ft 479 kts 327°
2026-05-01 12:16 24.62611 70.94779 33622 ft 479 kts 327°
2026-05-01 12:17 24.68410 70.91157 33618 ft 479 kts 327°
2026-05-01 12:17 24.74167 70.87556 33615 ft 479 kts 327°
2026-05-01 12:18 24.79967 70.83924 33611 ft 479 kts 327°
2026-05-01 12:18 24.85765 70.80291 33612 ft 479 kts 327°
2026-05-01 12:19 24.91556 70.76657 33614 ft 479 kts 327°
2026-05-01 12:19 24.97302 70.73047 33613 ft 479 kts 327°
2026-05-01 12:20 25.03086 70.69410 33608 ft 478 kts 327°
2026-05-01 12:20 25.08857 70.65778 33607 ft 478 kts 327°
2026-05-01 12:21 25.14627 70.62142 33610 ft 477 kts 327°
2026-05-01 12:21 25.20347 70.58533 33608 ft 477 kts 327°
2026-05-01 12:22 25.26105 70.54895 33609 ft 477 kts 327°
2026-05-01 12:22 25.31858 70.51257 33606 ft 476 kts 327°
2026-05-01 12:23 25.37606 70.47620 33604 ft 476 kts 327°
2026-05-01 12:23 25.43350 70.43980 33601 ft 475 kts 327°
2026-05-01 12:24 25.48995 70.40398 33599 ft 475 kts 327°
2026-05-01 12:24 25.54724 70.36760 33597 ft 475 kts 327°
2026-05-01 12:25 25.63317 70.31295 33594 ft 474 kts 327°
2026-05-01 12:26 25.69039 70.27651 33595 ft 474 kts 327°
2026-05-01 12:26 25.77572 70.22209 33594 ft 473 kts 327°
2026-05-01 12:27 25.86134 70.16739 33593 ft 473 kts 327°
2026-05-01 12:28 25.94647 70.11292 33583 ft 473 kts 326°
2026-05-01 12:29 26.03191 70.05815 33583 ft 472 kts 326°
2026-05-01 12:29 26.11727 70.00334 33580 ft 472 kts 326°
2026-05-01 12:30 26.20213 69.94876 33572 ft 472 kts 326°
2026-05-01 12:31 26.25898 69.91215 33570 ft 472 kts 326°
2026-05-01 12:31 26.31581 69.87550 33564 ft 472 kts 326°
2026-05-01 12:32 26.37229 69.83904 33562 ft 472 kts 326°
2026-05-01 12:32 26.45753 69.78394 33554 ft 472 kts 326°
2026-05-01 12:33 26.51438 69.74713 33554 ft 472 kts 326°
2026-05-01 12:33 26.57122 69.71029 33550 ft 472 kts 326°
2026-05-01 12:34 26.62763 69.67369 33551 ft 472 kts 326°
2026-05-01 12:34 26.68440 69.63680 33555 ft 472 kts 326°
2026-05-01 12:35 26.74119 69.59987 33547 ft 472 kts 326°
2026-05-01 12:35 26.79795 69.56291 33550 ft 472 kts 326°
2026-05-01 12:36 26.85429 69.52618 33545 ft 472 kts 326°
2026-05-01 12:36 26.91096 69.48919 33542 ft 471 kts 326°
2026-05-01 12:37 26.96760 69.45218 33547 ft 471 kts 326°
2026-05-01 12:37 27.02417 69.41518 33544 ft 470 kts 326°
2026-05-01 12:38 27.08068 69.37817 33547 ft 470 kts 326°
2026-05-01 12:38 27.13668 69.34144 33545 ft 469 kts 326°
2026-05-01 12:39 27.19295 69.30450 33535 ft 469 kts 325°
2026-05-01 12:39 27.24923 69.26751 33540 ft 468 kts 325°
2026-05-01 12:40 27.30540 69.23054 33542 ft 467 kts 325°
2026-05-01 12:40 27.36113 69.19382 33541 ft 467 kts 325°
2026-05-01 12:41 27.41714 69.15688 33547 ft 467 kts 325°
2026-05-01 12:41 27.47311 69.11992 33546 ft 466 kts 325°
2026-05-01 12:42 27.52901 69.08295 33542 ft 466 kts 325°
2026-05-01 12:42 27.58482 69.04600 33540 ft 465 kts 325°
2026-05-01 12:43 27.64025 69.00927 33538 ft 465 kts 325°
2026-05-01 12:43 27.69595 68.97231 33540 ft 464 kts 325°
2026-05-01 12:44 27.75162 68.93532 33543 ft 464 kts 324°
2026-05-01 12:45 27.86245 68.86155 33540 ft 464 kts 324°
2026-05-01 12:45 27.91802 68.82450 33539 ft 464 kts 324°
2026-05-01 12:46 27.97357 68.78741 33540 ft 464 kts 324°
2026-05-01 12:46 28.02908 68.75031 33543 ft 464 kts 324°
2026-05-01 12:47 28.08459 68.71316 33539 ft 463 kts 324°
2026-05-01 12:47 28.13973 68.67622 33543 ft 463 kts 324°
2026-05-01 12:48 28.19519 68.63901 33547 ft 463 kts 324°
2026-05-01 12:48 28.25064 68.60177 33544 ft 463 kts 324°
2026-05-01 12:49 28.30605 68.56451 33546 ft 463 kts 324°
2026-05-01 12:49 28.36106 68.52747 33541 ft 463 kts 324°
2026-05-01 12:50 28.41644 68.49014 33543 ft 463 kts 324°
2026-05-01 12:50 28.47179 68.45279 33540 ft 463 kts 324°
2026-05-01 12:51 28.52719 68.41534 33541 ft 463 kts 324°
2026-05-01 12:52 28.60986 68.35940 33546 ft 463 kts 324°
2026-05-01 12:52 28.69289 68.30310 33548 ft 463 kts 324°
2026-05-01 12:53 28.77594 68.24667 33551 ft 463 kts 324°
2026-05-01 12:54 28.83092 68.20927 33553 ft 463 kts 324°
2026-05-01 12:54 28.91388 68.15274 33553 ft 463 kts 324°
2026-05-01 12:55 28.99691 68.09604 33552 ft 464 kts 324°
2026-05-01 12:56 29.05224 68.05821 33556 ft 464 kts 323°
2026-05-01 12:56 29.10723 68.02056 33552 ft 464 kts 323°
2026-05-01 12:57 29.16259 67.98261 33553 ft 464 kts 323°
2026-05-01 12:57 29.24557 67.92563 33550 ft 463 kts 323°
2026-05-01 12:58 29.30084 67.88762 33550 ft 463 kts 323°
2026-05-01 12:59 29.38328 67.83083 33553 ft 463 kts 323°
2026-05-01 12:59 29.46602 67.77373 33569 ft 463 kts 323°
2026-05-01 13:00 29.54843 67.71678 33808 ft 456 kts 323°
2026-05-01 13:01 29.60228 67.67948 34009 ft 455 kts 323°
2026-05-01 13:01 29.62936 67.66069 34120 ft 455 kts 323°
2026-05-01 13:01 29.68351 67.62310 34326 ft 454 kts 323°
2026-05-01 13:02 29.71052 67.60434 34419 ft 454 kts 323°
2026-05-01 13:07 30.26412 67.21715 35793 ft 449 kts 322°
2026-05-01 13:07 30.29944 67.19226 35794 ft 450 kts 322°
2026-05-01 13:08 30.34436 67.16058 35795 ft 452 kts 322°
2026-05-01 13:08 30.39750 67.12311 35791 ft 450 kts 322°
2026-05-01 13:09 30.45097 67.08531 35786 ft 450 kts 322°
2026-05-01 13:09 30.50424 67.04762 35775 ft 448 kts 322°
2026-05-01 13:10 30.55740 67.00996 35765 ft 447 kts 321°
2026-05-01 13:10 30.61048 66.97229 35776 ft 449 kts 321°
2026-05-01 13:11 30.66360 66.93453 35785 ft 452 kts 321°
2026-05-01 13:11 30.71720 66.89641 35787 ft 451 kts 321°
2026-05-01 13:12 30.77079 66.85824 35793 ft 453 kts 321°
2026-05-01 13:12 30.82473 66.81974 35807 ft 456 kts 321°
2026-05-01 13:13 30.87858 66.78129 35808 ft 458 kts 321°
2026-05-01 13:13 30.93304 66.74235 35804 ft 460 kts 321°
2026-05-01 13:14 30.98758 66.70330 35791 ft 460 kts 321°
2026-05-01 13:14 31.04210 66.66421 35790 ft 461 kts 321°
2026-05-01 13:15 31.09635 66.62524 35783 ft 461 kts 321°
2026-05-01 13:15 31.15094 66.58600 35783 ft 461 kts 321°
2026-05-01 13:16 31.20547 66.54675 35775 ft 460 kts 321°
2026-05-01 13:16 31.25991 66.50749 35764 ft 459 kts 321°
2026-05-01 13:17 31.36807 66.42936 35746 ft 458 kts 321°
2026-05-01 13:18 31.44920 66.37059 35741 ft 457 kts 321°
2026-05-01 13:18 31.50318 66.33144 35739 ft 456 kts 321°
2026-05-01 13:19 31.55671 66.29254 35735 ft 455 kts 321°
2026-05-01 13:20 31.63744 66.23379 35735 ft 455 kts 320°
2026-05-01 13:20 31.69119 66.19461 35728 ft 455 kts 320°
2026-05-01 13:21 31.77140 66.13604 35732 ft 454 kts 320°
2026-05-01 13:21 31.82502 66.09684 35736 ft 454 kts 320°
2026-05-01 13:22 31.87858 66.05759 35739 ft 453 kts 320°
2026-05-01 13:22 31.93211 66.01832 35743 ft 453 kts 320°
2026-05-01 13:23 31.98528 65.97926 35753 ft 454 kts 320°
2026-05-01 13:23 32.03879 65.93989 35758 ft 454 kts 320°
2026-05-01 13:24 32.09233 65.90045 35768 ft 454 kts 320°
2026-05-01 13:25 32.17264 65.84118 35779 ft 454 kts 320°
2026-05-01 13:25 32.22583 65.80186 35781 ft 454 kts 320°
2026-05-01 13:26 32.27937 65.76223 35779 ft 454 kts 320°
2026-05-01 13:26 32.33290 65.72254 35781 ft 454 kts 320°
2026-05-01 13:27 32.38645 65.68281 35778 ft 454 kts 320°
2026-05-01 13:27 32.46637 65.62336 35772 ft 454 kts 320°
2026-05-01 13:28 32.54655 65.56362 35773 ft 453 kts 319°
2026-05-01 13:29 32.65336 65.48381 35764 ft 454 kts 319°
2026-05-01 13:31 32.81244 65.36461 35781 ft 451 kts 319°
2026-05-01 13:32 32.94457 65.26514 35808 ft 450 kts 319°
2026-05-01 13:33 33.07695 65.16515 35833 ft 450 kts 319°
2026-05-01 13:34 33.18236 65.08521 35857 ft 451 kts 318°
2026-05-01 13:35 33.26171 65.02488 35879 ft 451 kts 319°
2026-05-01 13:36 33.34129 64.96432 35886 ft 452 kts 318°
2026-05-01 13:36 33.42050 64.90380 35910 ft 453 kts 318°
2026-05-01 13:37 33.47363 64.86322 35920 ft 453 kts 318°
2026-05-01 13:37 33.52671 64.82259 35951 ft 453 kts 318°
2026-05-01 13:38 33.60649 64.76137 35942 ft 455 kts 318°
2026-05-01 13:39 33.65943 64.72072 35954 ft 455 kts 318°
2026-05-01 13:39 33.71272 64.67966 35953 ft 455 kts 318°
2026-05-01 13:40 33.76607 64.63853 35958 ft 457 kts 318°
2026-05-01 13:40 33.81924 64.59747 35956 ft 457 kts 317°
2026-05-01 13:41 33.87271 64.55617 35954 ft 457 kts 318°
2026-05-01 13:41 33.92615 64.51485 35960 ft 456 kts 318°
2026-05-01 13:42 33.97949 64.47349 35965 ft 456 kts 317°
2026-05-01 13:42 34.03274 64.43214 35973 ft 455 kts 317°
2026-05-01 13:43 34.08554 64.39106 35973 ft 455 kts 317°
2026-05-01 13:43 34.13872 64.34962 35975 ft 454 kts 317°
2026-05-01 13:44 34.19178 64.30825 35983 ft 454 kts 317°
2026-05-01 13:44 34.24488 64.26671 35994 ft 455 kts 317°
2026-05-01 13:45 34.29801 64.22513 36000 ft 455 kts 317°
2026-05-01 13:45 34.35085 64.18372 36013 ft 456 kts 317°
2026-05-01 13:46 34.40410 64.14186 36006 ft 459 kts 317°
2026-05-01 13:46 34.45766 64.09974 36025 ft 459 kts 317°
2026-05-01 13:47 34.51118 64.05758 36039 ft 460 kts 317°
2026-05-01 13:47 34.56452 64.01556 36045 ft 460 kts 317°
2026-05-01 13:48 34.61809 63.97331 36058 ft 459 kts 317°
2026-05-01 13:48 34.67159 63.93097 36077 ft 459 kts 318°
2026-05-01 13:49 34.72508 63.88860 36089 ft 459 kts 317°
2026-05-01 13:49 34.77820 63.84643 36097 ft 459 kts 317°
2026-05-01 13:50 34.83157 63.80399 36103 ft 458 kts 317°
2026-05-01 13:50 34.88495 63.76157 36101 ft 457 kts 317°
2026-05-01 13:51 34.93816 63.71913 36100 ft 458 kts 317°
2026-05-01 13:51 34.99112 63.67682 36101 ft 458 kts 318°
2026-05-01 13:52 35.04449 63.63414 36104 ft 459 kts 318°
2026-05-01 13:52 35.09796 63.59134 36104 ft 460 kts 318°
2026-05-01 13:53 35.15150 63.54843 36101 ft 460 kts 318°
2026-05-01 13:53 35.23151 63.48418 36103 ft 461 kts 318°
2026-05-01 13:54 35.28506 63.44108 36102 ft 461 kts 318°
2026-05-01 13:54 35.33861 63.39792 36105 ft 461 kts 318°
2026-05-01 13:55 35.39191 63.35522 36115 ft 454 kts 319°
2026-05-01 13:55 35.44434 63.31274 36098 ft 454 kts 318°
2026-05-01 13:56 35.49712 63.26971 36111 ft 456 kts 318°
2026-05-01 13:56 35.55009 63.22656 36112 ft 457 kts 317°
2026-05-01 13:57 35.59986 63.17904 36106 ft 450 kts 311°
2026-05-01 13:57 35.64483 63.12599 36111 ft 448 kts 308°
2026-05-01 13:58 35.68958 63.07319 36110 ft 449 kts 309°
2026-05-01 13:58 35.73467 63.01992 36114 ft 450 kts 309°
2026-05-01 13:59 35.77974 62.96639 36115 ft 450 kts 309°
2026-05-01 13:59 35.82477 62.91277 36116 ft 451 kts 308°
2026-05-01 14:00 35.86985 62.85902 36121 ft 451 kts 308°
2026-05-01 14:00 35.91466 62.80549 36120 ft 452 kts 308°
2026-05-01 14:01 35.95983 62.75144 36122 ft 453 kts 309°
2026-05-01 14:01 36.00503 62.69727 36125 ft 453 kts 309°
2026-05-01 14:02 36.05025 62.64300 36127 ft 453 kts 309°
2026-05-01 14:02 36.09519 62.58898 36130 ft 454 kts 309°
2026-05-01 14:03 36.14043 62.53449 36133 ft 454 kts 309°
2026-05-01 14:03 36.18574 62.47982 36134 ft 455 kts 309°
2026-05-01 14:04 36.23103 62.42510 36139 ft 455 kts 309°
2026-05-01 14:04 36.26871 62.37948 36133 ft 456 kts 309°
2026-05-01 14:05 36.32142 62.31556 36128 ft 456 kts 309°
2026-05-01 14:05 36.36679 62.26046 36126 ft 457 kts 309°
2026-05-01 14:06 36.41221 62.20519 36137 ft 457 kts 309°
2026-05-01 14:06 36.45758 62.14988 36139 ft 458 kts 309°
2026-05-01 14:07 36.50272 62.09476 36136 ft 458 kts 309°
2026-05-01 14:08 36.57094 62.01127 36137 ft 459 kts 309°
2026-05-01 14:08 36.61650 61.95539 36136 ft 460 kts 309°
2026-05-01 14:09 36.66210 61.89937 36130 ft 461 kts 309°
2026-05-01 14:09 36.70739 61.84363 36133 ft 461 kts 309°
2026-05-01 14:10 36.75305 61.78733 36136 ft 462 kts 309°
2026-05-01 14:10 36.79872 61.73092 36138 ft 462 kts 309°
2026-05-01 14:11 36.84440 61.67440 36141 ft 463 kts 309°
2026-05-01 14:11 36.91270 61.58977 36135 ft 463 kts 309°
2026-05-01 14:12 36.95843 61.53296 36131 ft 464 kts 309°
2026-05-01 14:12 37.00417 61.47605 36142 ft 464 kts 309°
2026-05-01 14:13 37.04216 61.42871 36132 ft 464 kts 309°
2026-05-01 14:13 37.09528 61.36241 36141 ft 464 kts 309°
2026-05-01 14:14 37.14097 61.30528 36142 ft 464 kts 309°
2026-05-01 14:14 37.18661 61.24810 36141 ft 464 kts 309°
2026-05-01 14:15 37.23223 61.19084 36143 ft 464 kts 309°
2026-05-01 14:15 37.27748 61.13385 36144 ft 464 kts 309°
2026-05-01 14:16 37.32301 61.07640 36140 ft 464 kts 309°
2026-05-01 14:16 37.36855 61.01885 36140 ft 464 kts 309°
2026-05-01 14:17 37.41405 60.96125 36141 ft 464 kts 309°
2026-05-01 14:17 37.45920 60.90397 36143 ft 464 kts 309°
2026-05-01 14:18 37.50470 60.84614 36140 ft 465 kts 309°
2026-05-01 14:18 37.54248 60.79805 36139 ft 465 kts 309°
2026-05-01 14:19 37.59569 60.73020 36138 ft 466 kts 309°
2026-05-01 14:19 37.64122 60.67202 36137 ft 466 kts 309°
2026-05-01 14:20 37.70921 60.58494 36135 ft 467 kts 309°
2026-05-01 14:21 37.75481 60.52640 36132 ft 467 kts 309°
2026-05-01 14:21 37.79909 60.46637 36127 ft 466 kts 308°
2026-05-01 14:22 37.86445 60.37584 36129 ft 467 kts 308°
2026-05-01 14:22 37.90848 60.31524 36119 ft 468 kts 308°
2026-05-01 14:23 37.95257 60.25452 36127 ft 468 kts 308°
2026-05-01 14:23 37.99662 60.19374 36127 ft 468 kts 308°
2026-05-01 14:24 38.04049 60.13339 36121 ft 469 kts 308°
2026-05-01 14:24 38.08490 60.07274 36122 ft 469 kts 308°
2026-05-01 14:25 38.12925 60.01197 36118 ft 469 kts 308°
2026-05-01 14:25 38.17360 59.95103 36120 ft 470 kts 308°
2026-05-01 14:26 38.23982 59.85978 36122 ft 470 kts 308°
2026-05-01 14:27 38.28413 59.79858 36116 ft 470 kts 308°
2026-05-01 14:27 38.32846 59.73724 36118 ft 471 kts 308°
2026-05-01 14:28 38.39492 59.64506 36110 ft 471 kts 308°
2026-05-01 14:28 38.43892 59.58389 36103 ft 471 kts 308°
2026-05-01 14:29 38.48323 59.52215 36128 ft 471 kts 308°
2026-05-01 14:30 38.57156 59.39821 36109 ft 471 kts 306°
2026-05-01 14:31 38.62365 59.29404 36111 ft 464 kts 293°
2026-05-01 14:31 38.65290 59.22025 36110 ft 465 kts 294°
2026-05-01 14:32 38.68233 59.14654 36109 ft 466 kts 294°
2026-05-01 14:32 38.71145 59.07319 36109 ft 466 kts 294°
2026-05-01 14:33 38.74074 58.99909 36115 ft 466 kts 294°
2026-05-01 14:33 38.76999 58.92494 36110 ft 466 kts 294°
2026-05-01 14:34 38.79920 58.85069 36111 ft 466 kts 294°
2026-05-01 14:34 38.82835 58.77643 36107 ft 467 kts 294°
2026-05-01 14:35 38.85728 58.70253 36110 ft 467 kts 294°
2026-05-01 14:35 38.88584 58.62776 36109 ft 465 kts 290°
2026-05-01 14:36 38.90779 58.54988 36109 ft 464 kts 287°
2026-05-01 14:36 38.92901 58.47221 36112 ft 465 kts 287°
2026-05-01 14:37 38.95041 58.39384 36105 ft 465 kts 287°
2026-05-01 14:37 38.97172 58.31538 36105 ft 465 kts 287°
2026-05-01 14:38 38.99297 58.23686 36106 ft 465 kts 287°
2026-05-01 14:38 39.01416 58.15828 36103 ft 465 kts 287°
2026-05-01 14:39 39.03518 58.08013 36106 ft 466 kts 287°
2026-05-01 14:39 39.05629 58.00137 36104 ft 466 kts 287°
2026-05-01 14:40 39.07737 57.92251 36102 ft 466 kts 287°
2026-05-01 14:40 39.09839 57.84358 36105 ft 466 kts 287°
2026-05-01 14:41 39.11925 57.76504 36103 ft 467 kts 287°
2026-05-01 14:41 39.14019 57.68597 36103 ft 467 kts 287°
2026-05-01 14:42 39.16109 57.60678 36103 ft 467 kts 287°
2026-05-01 14:42 39.18194 57.52751 36101 ft 467 kts 287°
2026-05-01 14:43 39.20274 57.44819 36102 ft 467 kts 287°
2026-05-01 14:43 39.22337 57.36928 36102 ft 468 kts 287°
2026-05-01 14:44 39.24409 57.28978 36103 ft 468 kts 287°
2026-05-01 14:44 39.27509 57.17033 36099 ft 468 kts 287°
2026-05-01 14:45 39.30585 57.05124 36095 ft 468 kts 287°
2026-05-01 14:46 39.32640 56.97134 36098 ft 469 kts 287°
2026-05-01 14:46 39.35713 56.85144 36097 ft 469 kts 287°
2026-05-01 14:47 39.37730 56.77136 36103 ft 469 kts 285°
2026-05-01 14:48 39.40469 56.65071 36104 ft 469 kts 285°
2026-05-01 14:48 39.43239 56.52935 36099 ft 469 kts 285°
2026-05-01 14:49 39.46917 56.36810 36090 ft 469 kts 285°
2026-05-01 14:50 39.50588 56.20597 36108 ft 469 kts 285°
2026-05-01 14:51 39.53326 56.08429 36097 ft 469 kts 285°
2026-05-01 14:52 39.56040 55.96304 36095 ft 469 kts 284°
2026-05-01 14:53 39.58758 55.84127 36097 ft 469 kts 285°
2026-05-01 14:53 39.60581 55.76003 36094 ft 469 kts 284°
2026-05-01 14:54 39.62384 55.67932 36093 ft 469 kts 284°
2026-05-01 14:54 39.64192 55.59803 36093 ft 469 kts 284°
2026-05-01 14:55 39.65993 55.51669 36091 ft 469 kts 284°
2026-05-01 14:55 39.67788 55.43536 36092 ft 469 kts 284°
2026-05-01 14:56 39.69566 55.35451 36093 ft 469 kts 284°
2026-05-01 14:56 39.71344 55.27309 36093 ft 469 kts 284°
2026-05-01 14:57 39.73114 55.19161 36093 ft 468 kts 284°
2026-05-01 14:57 39.75757 55.06943 36097 ft 468 kts 284°
2026-05-01 14:58 39.77501 54.98845 36095 ft 468 kts 284°
2026-05-01 14:58 39.79250 54.90691 36093 ft 468 kts 284°
2026-05-01 14:59 39.80993 54.82540 36098 ft 468 kts 284°
2026-05-01 14:59 39.82729 54.74389 36096 ft 468 kts 284°
2026-05-01 15:00 39.85340 54.62167 36096 ft 467 kts 284°
2026-05-01 15:01 39.87060 54.54076 36098 ft 467 kts 284°
2026-05-01 15:01 39.88786 54.45925 36095 ft 467 kts 284°
2026-05-01 15:02 39.90497 54.37770 36092 ft 466 kts 284°
2026-05-01 15:02 39.92195 54.29621 36090 ft 466 kts 284°
2026-05-01 15:03 39.93878 54.21520 36088 ft 466 kts 284°
2026-05-01 15:03 39.95565 54.13367 36092 ft 466 kts 283°
2026-05-01 15:04 39.97247 54.05212 36091 ft 466 kts 283°
2026-05-01 15:04 39.98921 53.97063 36094 ft 465 kts 283°
2026-05-01 15:05 40.00589 53.88905 36089 ft 465 kts 283°
2026-05-01 15:05 40.02239 53.80807 36089 ft 465 kts 283°
2026-05-01 15:06 40.03894 53.72654 36092 ft 465 kts 283°
2026-05-01 15:06 40.05544 53.64494 36095 ft 465 kts 283°
2026-05-01 15:07 40.07187 53.56335 36100 ft 465 kts 283°
2026-05-01 15:07 40.08811 53.48237 36103 ft 464 kts 283°
2026-05-01 15:08 40.10441 53.40077 36105 ft 464 kts 283°
2026-05-01 15:08 40.12065 53.31915 36107 ft 464 kts 283°
2026-05-01 15:09 40.13681 53.23760 36107 ft 464 kts 283°
2026-05-01 15:09 40.15282 53.15650 36107 ft 464 kts 283°
2026-05-01 15:10 40.16887 53.07484 36104 ft 464 kts 283°
2026-05-01 15:10 40.19283 52.95235 36105 ft 464 kts 283°
2026-05-01 15:11 40.21656 52.83030 36108 ft 463 kts 283°
2026-05-01 15:12 40.23236 52.74860 36114 ft 463 kts 282°
2026-05-01 15:12 40.25596 52.62597 36116 ft 463 kts 282°
2026-05-01 15:14 40.29497 52.42207 36112 ft 463 kts 282°
2026-05-01 15:14 40.31829 52.29931 36108 ft 463 kts 282°
2026-05-01 15:15 40.34905 52.13608 36102 ft 463 kts 282°
2026-05-01 15:16 40.37968 51.97226 36103 ft 462 kts 282°
2026-05-01 15:18 40.41748 51.76807 36102 ft 462 kts 282°
2026-05-01 15:19 40.44755 51.60411 36100 ft 462 kts 281°
2026-05-01 15:19 40.46997 51.48117 36095 ft 462 kts 282°
2026-05-01 15:20 40.49495 51.35950 36094 ft 462 kts 283°
2026-05-01 15:21 40.51169 51.27808 36093 ft 462 kts 283°
2026-05-01 15:21 40.52822 51.19648 36094 ft 462 kts 283°
2026-05-01 15:22 40.55283 51.07415 36090 ft 462 kts 282°
2026-05-01 15:22 40.56906 50.99311 36086 ft 461 kts 282°
2026-05-01 15:23 40.58534 50.91145 36084 ft 461 kts 282°
2026-05-01 15:23 40.60158 50.82974 36080 ft 461 kts 282°
2026-05-01 15:24 40.61774 50.74802 36066 ft 461 kts 282°
2026-05-01 15:24 40.63375 50.66681 36068 ft 461 kts 282°
2026-05-01 15:25 40.64979 50.58504 36072 ft 461 kts 282°
2026-05-01 15:25 40.66577 50.50328 36069 ft 461 kts 282°
2026-05-01 15:26 40.68172 50.42139 36048 ft 461 kts 282°
2026-05-01 15:26 40.69755 50.33953 36052 ft 461 kts 282°
2026-05-01 15:27 40.71321 50.25818 36049 ft 461 kts 282°
2026-05-01 15:28 40.73678 50.13522 36030 ft 461 kts 282°
2026-05-01 15:28 40.75240 50.05325 36029 ft 461 kts 282°
2026-05-01 15:29 40.77562 49.93083 36021 ft 461 kts 282°
2026-05-01 15:30 40.80390 49.78068 36018 ft 460 kts 282°
2026-05-01 15:31 40.85219 49.52154 35985 ft 459 kts 281°
2026-05-01 15:32 40.88237 49.35778 35970 ft 459 kts 281°
2026-05-01 15:34 40.92438 49.11163 35963 ft 459 kts 280°